This is the latest recevied weather packets stored in our database for station/object KD4MBW. If no packets are shown the sender has not sent any weather packets the latest 10 day(s).
| Time | Temp. | Humidity | Pressure | Rain* | Wind** | Luminosity | Snow |
|---|---|---|---|---|---|---|---|
| 1787574707 | 27.78° C | 99% | 1016.4 hPa | 0 mm | - | 73 W/m² | - |
| 1787574403 | 27.22° C | 99% | 1016.5 hPa | 0 mm | - | 70 W/m² | - |
| 1787574101 | 27.22° C | 99% | 1016.3 hPa | 0 mm | - | 63 W/m² | - |
| 1787573796 | 27.22° C | 99% | 1016.3 hPa | 0 mm | - | 85 W/m² | - |
| 1787573496 | 26.67° C | 99% | 1016.4 hPa | 0 mm | - | 75 W/m² | - |
| 1787573192 | 26.67° C | 99% | 1016.3 hPa | 0 mm | - | 62 W/m² | - |
| 1787572888 | 26.67° C | 99% | 1016.2 hPa | 0 mm | - | 45 W/m² | - |
| 1787572584 | 26.67° C | 99% | 1015.9 hPa | 0 mm | - | 32 W/m² | - |
| 1787572282 | 26.67° C | 99% | 1016 hPa | 0 mm | - | 27 W/m² | - |
| 1787571977 | 26.67° C | 99% | 1015.9 hPa | 0 mm | - | 25 W/m² | - |
| 1787571677 | 26.67° C | 99% | 1015.8 hPa | 0 mm | - | 18 W/m² | - |
| 1787571376 | 26.67° C | 99% | 1015.7 hPa | 0 mm | - | 13 W/m² | - |
| 1787571072 | 26.67° C | 99% | 1015.8 hPa | 0 mm | - | 10 W/m² | - |
| 1787570768 | 26.67° C | 99% | 1015.9 hPa | 0 mm | - | 7 W/m² | - |
| 1787570463 | 26.67° C | 99% | 1015.8 hPa | 0 mm | - | 5 W/m² | - |
| 1787570160 | 26.67° C | 99% | 1016 hPa | 0 mm | - | 3 W/m² | - |
| 1787569855 | 26.67° C | 99% | 1015.8 hPa | 0 mm | - | 1 W/m² | - |
| 1787569551 | 26.67° C | 99% | 1015.8 hPa | 0 mm | - | 1 W/m² | - |
| 1787569245 | 26.67° C | 99% | 1015.8 hPa | 0 mm | - | 0 W/m² | - |
| 1787568944 | 26.67° C | 99% | 1015.8 hPa | 0 mm | - | 0 W/m² | - |
| 1787568640 | 26.67° C | 99% | 1015.6 hPa | 0 mm | - | 0 W/m² | - |
| 1787568335 | 26.67° C | 99% | 1015.6 hPa | 0 mm | - | 0 W/m² | - |
| 1787568031 | 26.67° C | 99% | 1015.6 hPa | 0 mm | - | 0 W/m² | - |
| 1787567726 | 26.67° C | 99% | 1015.4 hPa | 0 mm | - | 0 W/m² | - |
| 1787567422 | 26.67° C | 99% | 1015.6 hPa | 0 mm | - | 0 W/m² | - |
* Rain latest hour (hover to see other rain measurements)
** Current wind speed in m/s (hover to see current wind gust speed)